Home > Weather > Kazan > Past weeks

Flag for Russia Weather for the Past 2 Weeks in Kazan, Russia

Now
21 °F

Ice fog.


Feels Like: 9 °F
Forecast: 6 / 17 °F
Wind: 13 mph from Southeast

Location: Kazan'

Current Time: Feb 12, 2016 at 7:35:26 AM

Latest Report: Feb 12, 2016 at 7:00 AM


Visibility: 1 mi

Pressure: 30.54 "Hg

Humidity: 93%

Dew point: 19 °F

Location of KazanLocation

Historic Weather in Kazan — Graph

°F

Kazan Temperature Yesterday

Maximum temperature yesterday: 25 °F (at 1:00 PM)
Minimum temperature yesterday: 12 °F (at 5:30 AM)
Average temperature yesterday: 19 °F

High & Low Weather Summary for the Past Weeks

 TemperatureHumidityPressure
High36 °F (Jan 31, 1:30 PM)100% (Jan 30, 6:00 AM)30.54 "Hg (Jan 30, 6:00 AM)
Low-6 °F (Jan 28, 6:30 AM)51% (Feb 9, 8:00 PM)29.39 "Hg (Feb 3, 9:30 PM)
Average24 °F89%29.92 "Hg
* Reported Jan 28 6:30 AM — Feb 12 6:30 AM, Kazan, Weather by CustomWeather, © 2016

Note: Actual official high and low records may vary slightly from our data, if they occured in-between our weather recording intervals... More about our weather records

Advertising

Kazan Weather History for the Previous 24 Hours

 ConditionsComfort  
Time TempWeatherWind HumidityBarometerVisibility
6:30 AM
Fri, Feb 12
19 °FCold.10 mph100%30.54 "Hg1 mi
6:00 AM19 °FCold.10 mph100%30.54 "Hg1 mi
5:30 AM19 °FIce fog.10 mph93%30.54 "Hg1 mi
5:00 AM19 °FCold.10 mph93%30.54 "Hg1 mi
4:30 AM19 °FIce fog.15 mph93%30.54 "Hg1 mi
4:00 AM19 °FIce fog.13 mph93%30.54 "Hg1 mi
3:30 AM19 °FIce fog.13 mph93%30.54 "Hg2 mi
3:00 AM18 °FIce fog.13 mph100%30.54 "Hg3 mi
2:30 AM18 °FPassing clouds.15 mph93%30.54 "Hg4 mi
2:00 AM18 °FPassing clouds.17 mph93%30.54 "Hg4 mi
1:00 AM18 °FIce fog.17 mph93%30.54 "Hg3 mi
12:30 AM18 °FPassing clouds.17 mph93%30.54 "HgN/A
12:00 AM18 °FPassing clouds.15 mph86%30.54 "HgN/A
11:30 PM
Thu, Feb 11
18 °FClear.10 mph86%30.54 "Hg10 mi
11:00 PM18 °FClear.10 mph86%30.54 "Hg10 mi
10:30 PM19 °FClear.10 mph86%30.54 "Hg10 mi
10:00 PM16 °FClear.8 mph93%30.54 "Hg10 mi
9:30 PM19 °FClear.10 mph86%30.54 "Hg10 mi
9:00 PM19 °FClear.15 mph86%30.54 "Hg10 mi
8:30 PM19 °FClear.10 mph86%30.54 "Hg10 mi
8:00 PM19 °FClear.13 mph86%30.54 "Hg10 mi
7:30 PM19 °FClear.15 mph86%30.54 "Hg10 mi
7:00 PM19 °FClear.13 mph86%30.54 "Hg10 mi
6:30 PM21 °FClear.13 mph80%30.54 "Hg10 mi
6:00 PM21 °FClear.10 mph80%30.54 "Hg10 mi
5:30 PM23 °FSunny.10 mph80%30.54 "Hg10 mi
5:00 PM21 °FSunny.8 mph80%30.54 "Hg10 mi
4:30 PM25 °FSunny.10 mph74%30.54 "Hg10 mi
4:00 PM25 °FSunny.8 mph74%30.54 "Hg10 mi
3:30 PM25 °FSunny.13 mph80%30.51 "Hg10 mi
3:00 PM25 °FSunny.13 mph80%30.51 "Hg10 mi
2:30 PM25 °FSunny.10 mph80%30.51 "Hg10 mi
2:00 PM25 °FSunny.13 mph80%30.51 "Hg10 mi
1:30 PM25 °FSunny.8 mph80%30.51 "Hg10 mi
1:00 PM25 °FSunny.10 mph80%30.51 "Hg10 mi
12:30 PM23 °FSunny.10 mph86%30.51 "Hg10 mi
12:00 PM23 °FSunny.8 mph80%30.51 "Hg10 mi
11:30 AM21 °FSunny.13 mph86%30.51 "Hg10 mi
11:00 AM21 °FSunny.10 mph86%30.51 "Hg10 mi
10:30 AM19 °FSunny.10 mph86%30.51 "Hg10 mi
10:00 AM19 °FSunny.10 mph86%30.48 "Hg10 mi
9:30 AM19 °FSunny.10 mph86%30.48 "Hg10 mi
9:00 AM18 °FSunny.13 mph93%30.48 "Hg10 mi
8:30 AM18 °FSunny.13 mph86%30.48 "Hg10 mi
8:00 AM18 °FClear.13 mph93%30.48 "HgN/A
7:30 AM16 °FClear.13 mph93%30.48 "Hg10 mi
7:00 AM16 °FClear.13 mph93%30.48 "Hg10 mi
Weather by CustomWeather, © 2016

See weather overviewHow to use our weather pages